Weather History for Goldsboro, NC

Change the Weather History Date:

Wednesday, October 24, 2012

  Actual Average Record
Temperature  
Mean Temperature 66 °F -  
Max Temperature 81 °F 70 °F 86 °F (2001)
Min Temperature 51 °F 48 °F 35 °F (2006)
Cooling Degree Days 1    
Growing Degree Days 16 (Base 50)    
Moisture  
Dew Point 54 °F    
Average Humidity 72    
Maximum Humidity 95    
Minimum Humidity 30    
Precipitation  
Precipitation 0.00 in - - ()
Sea Level Pressure  
Sea Level Pressure 30.14 in    
Wind  
Wind Speed 3 mph (SW)    
Max Wind Speed 6 mph    
Max Gust Speed -    
Visibility 10 miles    
Events      
Averages and records for this station are not official NWS values.
T = Trace of Precipitation, MM = Missing Value Source: NWS Daily Summary

Daily Weather History Graph

Daily Weather History Graph

Search for Another Location

Airport:

Trip Planner

Search our weather history database for the weather conditions in past years. The results will help you decide how hot, cold, wet, or windy it might be!

Date:

Astronomy

Oct. 24, 2012 Rise Set
Actual Time 7:26 AM EDT 6:25 PM EDT
Civil Twilight 7:00 AM EDT 6:50 PM EDT
Nautical Twilight 6:30 AM EDT 7:20 PM EDT
Astronomical Twilight 6:01 AM EDT 7:50 PM EDT
Moon 3:30 PM EDT (10/24) 2:29 AM EDT (10/24)
Length of Visible Light 11h 50m
Length of Day
10h 58m
Waxing Gibbous, 76% of the Moon is Illuminated
Oct 24
Waxing Gibbous
Oct 29
Full
Nov 6
Last Quarter
Nov 13
New
Nov 20
First Quarter

Hourly Weather History & Observations

Time (EDT) Temp. Dew Point Humidity Pressure Visibility Wind Dir Wind Speed Gust Speed Precip Events Conditions
12:55 AM 60.1 °F 55.2 °F 84% 30.15 in 10.0 mi South 5.8 mph - N/A   Clear
1:55 AM 59.0 °F 54.7 °F 86% 30.15 in 10.0 mi SW 4.6 mph - N/A   Clear
2:55 AM 58.3 °F 54.7 °F 88% 30.16 in 10.0 mi West 4.6 mph - N/A   Clear
3:55 AM 56.1 °F 53.8 °F 92% 30.15 in 10.0 mi Calm Calm - N/A   Clear
4:55 AM 53.8 °F 52.3 °F 95% 30.15 in 10.0 mi Calm Calm - N/A   Clear
5:55 AM 52.7 °F 50.4 °F 92% 30.16 in 10.0 mi Calm Calm - N/A   Clear
6:55 AM 51.4 °F 49.5 °F 93% 30.18 in 10.0 mi Calm Calm - N/A   Clear
7:55 AM 51.8 °F 50.4 °F 95% 30.19 in 10.0 mi Calm Calm - N/A   Clear
8:55 AM 56.5 °F 54.5 °F 93% 30.19 in 10.0 mi Calm Calm - N/A   Clear
9:55 AM 64.8 °F 60.1 °F 85% 30.20 in 10.0 mi West 5.8 mph - N/A   Clear
10:55 AM 70.0 °F 61.3 °F 74% 30.18 in 10.0 mi West 5.8 mph - N/A   Clear
11:55 AM 74.1 °F 56.8 °F 55% 30.16 in 10.0 mi Variable 5.8 mph - N/A   Clear
12:55 PM 77.0 °F 53.6 °F 44% 30.14 in 10.0 mi Variable 4.6 mph - N/A   Clear
1:55 PM 78.6 °F 53.1 °F 41% 30.12 in 10.0 mi Calm Calm - N/A   Clear
2:55 PM 80.4 °F 51.3 °F 36% 30.09 in 10.0 mi SSW 3.5 mph - N/A   Clear
3:55 PM 81.3 °F 47.7 °F 31% 30.09 in 10.0 mi South 5.8 mph - N/A   Clear
4:55 PM 81.1 °F 47.1 °F 30% 30.09 in 10.0 mi SW 5.8 mph - N/A   Clear
5:55 PM 76.1 °F 54.7 °F 47% 30.09 in 10.0 mi Calm Calm - N/A   Clear
6:55 PM 67.6 °F 54.5 °F 63% 30.10 in 10.0 mi Calm Calm - N/A   Clear
7:55 PM 64.9 °F 53.6 °F 67% 30.12 in 10.0 mi Calm Calm - N/A   Clear
8:55 PM 60.4 °F 54.3 °F 80% 30.12 in 10.0 mi Calm Calm - N/A   Clear
9:55 PM 63.9 °F 55.0 °F 73% 30.13 in 10.0 mi SSE 5.8 mph - N/A   Clear
10:55 PM 63.7 °F 58.6 °F 84% 30.14 in 10.0 mi South 3.5 mph - N/A   Clear
11:55 PM 60.6 °F 57.9 °F 91% 30.13 in 10.0 mi Calm Calm - N/A   Clear